This is the latest recevied weather packets stored in our database for station/object JH5EWP-13. If no packets are shown the sender has not sent any weather packets the latest 10 day(s).
| Time | Temp. | Humidity | Pressure | Rain* | Wind** | Luminosity | Snow |
|---|---|---|---|---|---|---|---|
| 1778109464 | 19.44° C | 57% | 1005.9 hPa | 0 mm | - | - | - |
| 1778108564 | 19.44° C | 60% | 1006 hPa | 0 mm | - | - | - |
| 1778107664 | 18.89° C | 63% | 1006.1 hPa | 0 mm | - | - | - |
| 1778106765 | 17.78° C | 64% | 1006.2 hPa | 0 mm | - | - | - |
| 1778105865 | 16.67° C | 71% | 1006.3 hPa | 0 mm | - | - | - |
| 1778104965 | 16.11° C | 71% | 1006.2 hPa | 0 mm | - | - | - |
| 1778104065 | 16.11° C | 71% | 1006.1 hPa | 0 mm | - | - | - |
| 1778103164 | 15.56° C | 71% | 1006.1 hPa | 0 mm | - | - | - |
| 1778102263 | 15.56° C | 71% | 1006.1 hPa | 0 mm | - | - | - |
| 1778101363 | 16.11° C | 72% | 1005.5 hPa | 0 mm | - | - | - |
| 1778100464 | 15° C | 73% | 1005.5 hPa | 0 mm | - | - | - |
| 1778099563 | 14.44° C | 74% | 1005.4 hPa | 0 mm | - | - | - |
| 1778098665 | 13.89° C | 74% | 1005.6 hPa | 0 mm | - | - | - |
| 1778097764 | 13.89° C | 74% | 1005.7 hPa | 0 mm | - | - | - |
| 1778096864 | 13.89° C | 74% | 1005.9 hPa | 0 mm | - | - | - |
| 1778095963 | 14.44° C | 74% | 1006 hPa | 0 mm | - | - | - |
| 1778095064 | 13.89° C | 74% | 1006.2 hPa | 0 mm | - | - | - |
| 1778094164 | 13.89° C | 74% | 1006.2 hPa | 0 mm | - | - | - |
| 1778093263 | 13.89° C | 73% | 1006.1 hPa | 0 mm | - | - | - |
| 1778092363 | 13.89° C | 72% | 1006.1 hPa | 0 mm | - | - | - |
| 1778091465 | 13.89° C | 72% | 1006.2 hPa | 0 mm | - | - | - |
| 1778090565 | 14.44° C | 72% | 1006 hPa | 0 mm | - | - | - |
| 1778089664 | 14.44° C | 72% | 1006 hPa | 0 mm | - | - | - |
| 1778088764 | 14.44° C | 71% | 1006.1 hPa | 0 mm | - | - | - |
| 1778087864 | 14.44° C | 71% | 1006.1 hPa | 0 mm | - | - | - |
* Rain latest hour (hover to see other rain measurements)
** Current wind speed in m/s (hover to see current wind gust speed)